Retour au catalogue

STARLINK-34114

ActifCommunicationsVLEO
NORAD 63905·PAYLOAD·🇺🇸 United States

Lancé May 10, 2025 depuis Cape Canaveral Space Force Station

Loading…

Prochains Passages (prochaines 24 heures)

TLE

FraisSource: CelesTrak SupGP

Époque: Sep 14, 2026, 20:33 UTC

1 63905C 25095R   26257.85673611  .00013310  00000+0  48204-3 0  2578
2 63905  43.0021 188.2750 0001300 261.4723 117.8072 15.27574535    16

Suivez STARLINK-34114 en temps réel avec AllMySat

Download on the App Store